Location: Hastringsfeld
(50.9620°N, 10.4787°E)
Time: 19:42:40
(UTC+00:00)

Cosmos 1937 Rocket - Pass Details

Date: 26 September 2023
Orbit: 744 x 779 km, 74.0° (Epoch: 08 December)

Event Time Altitude Azimuth Distance (km) Brightness Sun altitude
Exits shadow 03:03:31 40° 221° (SW) 1,104 3.8 -20.1°
Maximum altitude 03:05:23 73° 296° (WNW) 789 3.4 -19.9°
Drops below altitude 10° 03:10:35 10° 22° (NNE) 2,294 6.6 -19.1°
Sets 03:12:59 0° 24° (NNE) 3,229 7.5 -18.8°
